Previsão horária em 2-e Itkulovo

Hoje, 17 Abril, Sábado

Tempo Temperatura Precipitação Vento Pressão Humidade
00:00 +6°C° 0 mm 4 m/s 718 mmHg 91%
01:00 +6°C° 0 mm 4 m/s 718 mmHg 93%
02:00 +6°C° 0 mm 4 m/s 718 mmHg 93%
03:00 +6°C° 0 mm 4 m/s 718 mmHg 94%
04:00 +5°C° 0 mm 3 m/s 718 mmHg 94%
05:00 +5°C° 0 mm 3 m/s 718 mmHg 93%
06:00 +7°C° 0 mm 3 m/s 718 mmHg 92%
07:00 +7°C° 0 mm 3 m/s 718 mmHg 91%
08:00 +8°C° 0 mm 3 m/s 718 mmHg 87%
09:00 +9°C° 0 mm 3 m/s 718 mmHg 83%
10:00 +10°C° 0 mm 2 m/s 718 mmHg 79%
11:00 +11°C° 0 mm 3 m/s 718 mmHg 73%
12:00 +12°C° 0 mm 3 m/s 718 mmHg 67%
13:00 +13°C° 0 mm 3 m/s 718 mmHg 61%
14:00 +15°C° 0 mm 2 m/s 717 mmHg 58%
15:00 +15°C° 0 mm 2 m/s 717 mmHg 55%
16:00 +15°C° 0 mm 2 m/s 717 mmHg 53%
17:00 +14°C° 0 mm 1 m/s 717 mmHg 58%
18:00 +13°C° 0 mm 1 m/s 716 mmHg 64%
19:00 +12°C° 0 mm 1 m/s 716 mmHg 69%
20:00 +11°C° 0 mm 1 m/s 716 mmHg 72%
21:00 +10°C° 0 mm 1 m/s 716 mmHg 75%
22:00 +10°C° 0 mm 1 m/s 716 mmHg 79%
23:00 +9°C° 0 mm 1 m/s 716 mmHg 80%

Amanhã, 18 Abril, Domingo

Tempo Temperatura Precipitação Vento Pressão Humidade
00:00 +9°C° 0 mm 1 m/s 715 mmHg 81%
01:00 +7°C° 0 mm 0 m/s 715 mmHg 82%
02:00 +8°C° 0 mm 1 m/s 715 mmHg 83%
03:00 +8°C° 0 mm 1 m/s 715 mmHg 83%
04:00 +7°C° 0 mm 1 m/s 715 mmHg 84%
05:00 +8°C° 0 mm 1 m/s 715 mmHg 83%
06:00 +8°C° 0 mm 1 m/s 715 mmHg 82%
07:00 +9°C° 0 mm 1 m/s 715 mmHg 80%
08:00 +10°C° 0 mm 1 m/s 715 mmHg 75%
09:00 +12°C° 0 mm 1 m/s 715 mmHg 69%
10:00 +13°C° 0 mm 1 m/s 715 mmHg 63%
11:00 +14°C° 0 mm 2 m/s 715 mmHg 58%
12:00 +15°C° 0 mm 2 m/s 715 mmHg 54%
13:00 +15°C° 0 mm 2 m/s 715 mmHg 49%
14:00 +14°C° 0 mm 3 m/s 715 mmHg 49%
15:00 +13°C° 0 mm 3 m/s 715 mmHg 49%
16:00 +13°C° 0 mm 4 m/s 715 mmHg 50%
17:00 +12°C° 0 mm 4 m/s 715 mmHg 53%
18:00 +10°C° 0 mm 5 m/s 715 mmHg 57%
19:00 +8°C° 0 mm 5 m/s 716 mmHg 61%
20:00 +7°C° 0 mm 6 m/s 716 mmHg 66%
21:00 +4°C° 0 mm 7 m/s 717 mmHg 71%
22:00 +1°C° 0 mm 8 m/s 718 mmHg 76%
23:00 0°C° 0 mm 8 m/s 718 mmHg 73%

Depois de amanhã, 19 Abril, Segunda-feira

Tempo Temperatura Precipitação Vento Pressão Humidade
00:00 -1°C° 0 mm 8 m/s 718 mmHg 71%
01:00 -2°C° 0 mm 8 m/s 719 mmHg 69%
02:00 -4°C° 0 mm 8 m/s 719 mmHg 68%
03:00 -4°C° 0 mm 8 m/s 719 mmHg 66%
04:00 -4°C° 0 mm 8 m/s 720 mmHg 65%
05:00 -5°C° 0 mm 8 m/s 720 mmHg 65%
06:00 -5°C° 0 mm 8 m/s 720 mmHg 65%
07:00 -5°C° 0 mm 8 m/s 721 mmHg 65%
08:00 -5°C° 0 mm 8 m/s 721 mmHg 59%
09:00 -4°C° 0 mm 8 m/s 721 mmHg 54%
10:00 -4°C° 0 mm 8 m/s 721 mmHg 48%
11:00 -2°C° 0 mm 8 m/s 721 mmHg 46%
12:00 -1°C° 0 mm 8 m/s 721 mmHg 43%
13:00 -1°C° 0 mm 7 m/s 721 mmHg 41%
14:00 -1°C° 0 mm 7 m/s 721 mmHg 40%
15:00 -1°C° 0 mm 7 m/s 722 mmHg 39%
16:00 -1°C° 0 mm 7 m/s 722 mmHg 38%
17:00 -2°C° 0 mm 7 m/s 722 mmHg 39%
18:00 -2°C° 0 mm 6 m/s 722 mmHg 41%
19:00 -3°C° 0 mm 6 m/s 722 mmHg 42%
20:00 -4°C° 0 mm 6 m/s 722 mmHg 44%
21:00 -4°C° 0 mm 6 m/s 723 mmHg 46%
22:00 -5°C° 0 mm 6 m/s 723 mmHg 48%
23:00 -5°C° 0 mm 6 m/s 723 mmHg 48%

20 Abril, Terça-feira

Tempo Temperatura Precipitação Vento Pressão Humidade
00:00 -6°C° 0 mm 6 m/s 723 mmHg 49%
01:00 -6°C° 0 mm 6 m/s 723 mmHg 49%
02:00 -6°C° 0 mm 6 m/s 724 mmHg 50%
03:00 -7°C° 0 mm 5 m/s 724 mmHg 50%
04:00 -7°C° 0 mm 5 m/s 724 mmHg 50%
05:00 -8°C° 0 mm 6 m/s 724 mmHg 48%
06:00 -6°C° 0 mm 6 m/s 725 mmHg 46%
07:00 -7°C° 0 mm 7 m/s 725 mmHg 43%
08:00 -5°C° 0 mm 6 m/s 725 mmHg 39%
09:00 -4°C° 0 mm 6 m/s 725 mmHg 34%
10:00 -2°C° 0 mm 6 m/s 725 mmHg 30%
11:00 -1°C° 0 mm 6 m/s 725 mmHg 29%
12:00 +1°C° 0 mm 5 m/s 725 mmHg 29%
13:00 +2°C° 0 mm 5 m/s 725 mmHg 28%
14:00 +3°C° 0 mm 4 m/s 725 mmHg 29%
15:00 +3°C° 0 mm 4 m/s 725 mmHg 29%
16:00 +3°C° 0 mm 3 m/s 725 mmHg 30%
17:00 +2°C° 0 mm 3 m/s 725 mmHg 36%
18:00 +2°C° 0 mm 2 m/s 724 mmHg 42%
19:00 +1°C° 0 mm 2 m/s 724 mmHg 48%
20:00 -1°C° 0 mm 2 m/s 724 mmHg 50%
21:00 -2°C° 0 mm 2 m/s 725 mmHg 52%
22:00 -2°C° 0 mm 2 m/s 725 mmHg 54%
23:00 -1°C° 0 mm 1 m/s 725 mmHg 55%

21 Abril, Quarta-feira

Tempo Temperatura Precipitação Vento Pressão Humidade
00:00 -1°C° 0 mm 1 m/s 725 mmHg 55%
01:00 -1°C° 0 mm 1 m/s 725 mmHg 55%
02:00 -1°C° 0 mm 1 m/s 725 mmHg 55%
03:00 -1°C° 0 mm 1 m/s 725 mmHg 54%
04:00 -1°C° 0 mm 1 m/s 725 mmHg 54%
05:00 0°C° 0 mm 1 m/s 725 mmHg 49%
06:00 +1°C° 0 mm 1 m/s 725 mmHg 45%
07:00 +1°C° 0 mm 2 m/s 726 mmHg 40%
08:00 +2°C° 0 mm 2 m/s 725 mmHg 36%
09:00 +4°C° 0 mm 2 m/s 725 mmHg 32%
10:00 +5°C° 0 mm 3 m/s 725 mmHg 29%
11:00 +7°C° 0 mm 3 m/s 725 mmHg 29%
12:00 +8°C° 0 mm 3 m/s 725 mmHg 29%
13:00 +9°C° 0 mm 3 m/s 725 mmHg 29%
14:00 +9°C° 0 mm 3 m/s 725 mmHg 29%
15:00 +9°C° 0 mm 3 m/s 725 mmHg 30%
16:00 +9°C° 0 mm 3 m/s 725 mmHg 30%
17:00 +8°C° 0 mm 3 m/s 725 mmHg 37%
18:00 +6°C° 0 mm 2 m/s 725 mmHg 43%
19:00 +5°C° 0 mm 2 m/s 725 mmHg 50%
20:00 +4°C° 0 mm 2 m/s 725 mmHg 51%
21:00 +3°C° 0 mm 2 m/s 725 mmHg 53%
22:00 +3°C° 0 mm 2 m/s 725 mmHg 55%
23:00 +3°C° 0 mm 1 m/s 725 mmHg 55%

22 Abril, Quinta-feira

Tempo Temperatura Precipitação Vento Pressão Humidade
00:00 +3°C° 0 mm 1 m/s 725 mmHg 56%
01:00 +3°C° 0 mm 1 m/s 725 mmHg 57%
02:00 +2°C° 0 mm 1 m/s 726 mmHg 57%
03:00 +2°C° 0 mm 1 m/s 726 mmHg 58%
04:00 +2°C° 0 mm 1 m/s 726 mmHg 58%
05:00 +3°C° 0 mm 1 m/s 726 mmHg 55%
06:00 +3°C° 0 mm 2 m/s 726 mmHg 52%
07:00 +4°C° 0 mm 2 m/s 726 mmHg 49%
08:00 +5°C° 0 mm 3 m/s 727 mmHg 45%
09:00 +7°C° 0 mm 3 m/s 727 mmHg 41%
10:00 +8°C° 0 mm 4 m/s 727 mmHg 36%
11:00 +8°C° 0 mm 4 m/s 727 mmHg 35%
12:00 +10°C° 0 mm 4 m/s 727 mmHg 34%
13:00 +11°C° 0 mm 4 m/s 727 mmHg 33%
14:00 +11°C° 0 mm 4 m/s 726 mmHg 34%
15:00 +11°C° 0 mm 4 m/s 726 mmHg 35%
16:00 +11°C° 0 mm 4 m/s 726 mmHg 36%
17:00 +10°C° 0 mm 4 m/s 726 mmHg 41%
18:00 +9°C° 0 mm 3 m/s 726 mmHg 47%
19:00 +8°C° 0 mm 2 m/s 726 mmHg 52%
20:00 +7°C° 0 mm 2 m/s 726 mmHg 54%
21:00 +6°C° 0 mm 2 m/s 726 mmHg 56%
22:00 +7°C° 0 mm 1 m/s 725 mmHg 57%
23:00 +6°C° 0 mm 1 m/s 725 mmHg 59%
Mostrar mais